Michipicoten — CFG8060 — position and weather

sailwx.info

Track history (hours):
 
Tides and Currents Weather Stations Pressure Air Temp Water Temp Dewpoint Dewpoint Depression Visibility Wind Speed Wind Dir Waves Ship Positions

Michipicoten

Last reported at 2018-Jun-22 11:22 UTC. Time now 2018-Jun-22 13:16 UTC.
Position N 46°27' W 084°33'.

Length 213 m; draft 5.5 m.

Type: Ship. MMSI: 316002501.

Date/timePositionNaut miles runAvg speedWind from/ knotsBaromVisibWave heightAir tempDewpointWater temp
2018-Jun-22 11:22N 46°27' W 084°33'7912.1
2018-Jun-22 04:53N 46°43' W 086°25'613.6
2018-Jun-22 04:25N 46°41' W 086°34'613.6
2018-Jun-22 04:00N 46°40' W 086°42'813.6
2018-Jun-22 03:26N 46°39' W 086°54'  
2018-Jun-19 15:59N 46°53' W 091°45'613.3
2018-Jun-19 15:30N 46°50' W 091°54'713.4
2018-Jun-19 15:00N 46°48' W 092°03'3 6.9
2018-Jun-19 14:30N 46°45' W 092°06'1 2.7
2018-Jun-19 14:00N 46°45' W 092°08'0 0.7
2018-Jun-19 13:30N 46°45' W 092°08'0 0.0
2018-Jun-19 13:00N 46°45' W 092°08'0 0.1
2018-Jun-19 12:30N 46°45' W 092°08'0 0.0
2018-Jun-19 12:00N 46°45' W 092°08'0 0.1
2018-Jun-19 11:30N 46°45' W 092°08'0 0.0
2018-Jun-19 11:00N 46°45' W 092°08'0 0.0
2018-Jun-19 10:31N 46°45' W 092°08'0 0.0
2018-Jun-19 10:00N 46°45' W 092°08'0 0.1
2018-Jun-19 09:30N 46°45' W 092°08'0 0.1
2018-Jun-19 09:00N 46°45' W 092°08'0 0.0
2018-Jun-19 08:30N 46°45' W 092°08'0 0.0
2018-Jun-19 07:59N 46°45' W 092°08'0 0.0
2018-Jun-19 07:30N 46°45' W 092°08'0 0.0
2018-Jun-19 07:00N 46°45' W 092°08'0 0.3
2018-Jun-19 06:30N 46°45' W 092°08'1 3.0
2018-Jun-19 06:00N 46°45' W 092°06'4 7.6
2018-Jun-19 05:30N 46°48' W 092°02'713.9
2018-Jun-19 05:01N 46°50' W 091°52'714.1
2018-Jun-19 04:31N 46°53' W 091°43'714.1
2018-Jun-19 04:01N 46°56' W 091°33'714.1
2018-Jun-19 03:31N 46°58' W 091°24'  
2018-Jun-13 20:43N 46°52' W 091°47'313.7
2018-Jun-13 20:30N 46°51' W 091°51'713.7
2018-Jun-13 20:01N 46°48' W 092°00'4 8.9
2018-Jun-13 19:31N 46°46' W 092°06'2 3.3
2018-Jun-13 18:59N 46°45' W 092°08'0 0.1
2018-Jun-13 18:30N 46°45' W 092°08'0 0.0
2018-Jun-13 18:00N 46°45' W 092°08'0 0.0
2018-Jun-13 17:30N 46°45' W 092°08'0 0.0
2018-Jun-13 17:01N 46°45' W 092°08'0 0.0
2018-Jun-13 16:31N 46°45' W 092°08'0 0.0
2018-Jun-13 16:01N 46°45' W 092°08'0 0.0
2018-Jun-13 15:30N 46°45' W 092°08'0 0.0
2018-Jun-13 15:01N 46°45' W 092°08'0 0.0
2018-Jun-13 14:31N 46°45' W 092°08'0 0.0
2018-Jun-13 14:00N 46°45' W 092°08'1 1.8
2018-Jun-13 13:31N 46°45' W 092°07'3 6.2
2018-Jun-13 13:00N 46°47' W 092°04'714.0
2018-Jun-13 12:31N 46°50' W 091°55'714.0
2018-Jun-13 12:00N 46°52' W 091°45'714.0
2018-Jun-13 11:30N 46°55' W 091°36'  
Track history (hours):
 
Tides and Currents Weather Stations Pressure Air Temp Water Temp Dewpoint Dewpoint Depression Visibility Wind Speed Wind Dir Waves Ship Positions

Michipicoten

Last reported at 2018-Jun-22 11:22 UTC. Time now 2018-Jun-22 13:16 UTC.
Position N 46°27' W 084°33'.

Length 213 m; draft 5.5 m.

Type: Ship. MMSI: 316002501.

Date/timePositionNaut miles runAvg speedWind from/ knotsBaromVisibWave heightAir tempDewpointWater temp
2018-Jun-22 11:22N 46°27' W 084°33'7912.1
2018-Jun-22 04:53N 46°43' W 086°25'613.6
2018-Jun-22 04:25N 46°41' W 086°34'613.6
2018-Jun-22 04:00N 46°40' W 086°42'813.6
2018-Jun-22 03:26N 46°39' W 086°54'  
2018-Jun-19 15:59N 46°53' W 091°45'613.3
2018-Jun-19 15:30N 46°50' W 091°54'713.4
2018-Jun-19 15:00N 46°48' W 092°03'3 6.9
2018-Jun-19 14:30N 46°45' W 092°06'1 2.7
2018-Jun-19 14:00N 46°45' W 092°08'0 0.7
2018-Jun-19 13:30N 46°45' W 092°08'0 0.0
2018-Jun-19 13:00N 46°45' W 092°08'0 0.1
2018-Jun-19 12:30N 46°45' W 092°08'0 0.0
2018-Jun-19 12:00N 46°45' W 092°08'0 0.1
2018-Jun-19 11:30N 46°45' W 092°08'0 0.0
2018-Jun-19 11:00N 46°45' W 092°08'0 0.0
2018-Jun-19 10:31N 46°45' W 092°08'0 0.0
2018-Jun-19 10:00N 46°45' W 092°08'0 0.1
2018-Jun-19 09:30N 46°45' W 092°08'0 0.1
2018-Jun-19 09:00N 46°45' W 092°08'0 0.0
2018-Jun-19 08:30N 46°45' W 092°08'0 0.0
2018-Jun-19 07:59N 46°45' W 092°08'0 0.0
2018-Jun-19 07:30N 46°45' W 092°08'0 0.0
2018-Jun-19 07:00N 46°45' W 092°08'0 0.3
2018-Jun-19 06:30N 46°45' W 092°08'1 3.0
2018-Jun-19 06:00N 46°45' W 092°06'4 7.6
2018-Jun-19 05:30N 46°48' W 092°02'713.9
2018-Jun-19 05:01N 46°50' W 091°52'714.1
2018-Jun-19 04:31N 46°53' W 091°43'714.1
2018-Jun-19 04:01N 46°56' W 091°33'714.1
2018-Jun-19 03:31N 46°58' W 091°24'  
2018-Jun-13 20:43N 46°52' W 091°47'313.7
2018-Jun-13 20:30N 46°51' W 091°51'713.7
2018-Jun-13 20:01N 46°48' W 092°00'4 8.9
2018-Jun-13 19:31N 46°46' W 092°06'2 3.3
2018-Jun-13 18:59N 46°45' W 092°08'0 0.1
2018-Jun-13 18:30N 46°45' W 092°08'0 0.0
2018-Jun-13 18:00N 46°45' W 092°08'0 0.0
2018-Jun-13 17:30N 46°45' W 092°08'0 0.0
2018-Jun-13 17:01N 46°45' W 092°08'0 0.0
2018-Jun-13 16:31N 46°45' W 092°08'0 0.0
2018-Jun-13 16:01N 46°45' W 092°08'0 0.0
2018-Jun-13 15:30N 46°45' W 092°08'0 0.0
2018-Jun-13 15:01N 46°45' W 092°08'0 0.0
2018-Jun-13 14:31N 46°45' W 092°08'0 0.0
2018-Jun-13 14:00N 46°45' W 092°08'1 1.8
2018-Jun-13 13:31N 46°45' W 092°07'3 6.2
2018-Jun-13 13:00N 46°47' W 092°04'714.0
2018-Jun-13 12:31N 46°50' W 091°55'714.0
2018-Jun-13 12:00N 46°52' W 091°45'714.0
2018-Jun-13 11:30N 46°55' W 091°36'  

Dump ship's entire track history